Waarnemingen

Advertentie
Mijn weer
London/Heathrow Intl, Groot Brittannië (3772): temperatuur & dauwpunt: 17.09.2019 06:00:00 - 23.09.2019 06:00:00 (BST)London/Heathrow Intl, Groot Brittannië (3772): windsnelheid: 17.09.2019 06:00:00 - 23.09.2019 06:00:00 (BST)London/Heathrow Intl, Groot Brittannië (3772): windrichting: 17.09.2019 06:00:00 - 23.09.2019 06:00:00 (BST)London/Heathrow Intl, Groot Brittannië (3772): luchtdruk: 17.09.2019 06:00:00 - 23.09.2019 06:00:00 (BST)London/Heathrow Intl, Groot Brittannië (3772): zicht: 17.09.2019 06:00:00 - 23.09.2019 06:00:00 (BST)London/Heathrow Intl, Groot Brittannië (3772): Zonneschijnduur: 17.09.2019 06:00:00 - 23.09.2019 06:00:00 (BST)London/Heathrow Intl, Groot Brittannië (3772): neerslag: 17.09.2019 06:00:00 - 23.09.2019 06:00:00 (BST)
Datum & Tijd tt [°C] td [°C] ff [km/u] ff [kn] dd ppp [hPa] vv [km] sd [min] rr [mm]
23.09.2019 06:00:00 14,3 12,3 16 9 WZW 1009,5 10 0 0,0
23.09.2019 05:00:00 14,6 12,6 18 10 WZW 1009,0 10 0 0,0
23.09.2019 04:00:00 14,3 12,8 13 7 ZW 1008,5 10 0 0,0
23.09.2019 03:00:00 14,0 12,7 9 5 ZZW 1008,0 10 0 0,0
23.09.2019 02:00:00 14,0 12,8 8 4 Z 1007,7 10 0 0,0
23.09.2019 01:00:00 14,1 12,6 9 5 Z 1007,2 10 - 0,0
23.09.2019 00:00:00 14,3 12,7 11 6 Z 1007,0 21 0 0,0
22.09.2019 23:00:00 15,2 12,8 11 6 Z 1006,6 10 0 0,0
22.09.2019 22:00:00 15,5 12,4 9 5 Z 1006,2 10 0 0,0
22.09.2019 21:00:00 16,4 12,2 13 7 Z 1005,7 28 0 0,0
22.09.2019 20:00:00 16,8 13,1 15 8 ZZW 1005,5 25 0 0,0
22.09.2019 19:00:00 17,5 14,4 15 8 Z 1004,7 10 0 0,0
22.09.2019 18:00:00 17,8 14,4 21 11 ZZW 1004,6 10 0 0,0
22.09.2019 17:00:00 17,8 14,7 15 8 ZZW 1004,4 10 0 0,0
22.09.2019 16:00:00 17,4 15,7 15 8 ZW 1004,4 10 0 0,2
22.09.2019 15:00:00 17,8 15,2 21 11 ZZW 1004,3 10 0 0,0
22.09.2019 14:00:00 17,5 15,7 11 6 WZW 1003,8 30 0 0,2
22.09.2019 13:00:00 16,6 15,6 21 11 WZW 1003,5 7 0 1,2
22.09.2019 12:00:00 21,5 16,0 16 9 Z 1002,7 27 18 0,0
22.09.2019 11:00:00 21,8 16,8 21 11 ZZO 1002,6 10 0 0,0
22.09.2019 10:00:00 20,8 16,8 15 8 Z 1002,8 10 6 0,0
22.09.2019 09:00:00 18,6 16,3 13 7 ZZO 1002,8 10 0 0,2
22.09.2019 08:00:00 18,1 15,5 8 4 ZO 1003,1 10 0 0,0
22.09.2019 07:00:00 18,3 14,8 8 4 ZZO 1003,1 10 0 0,0
22.09.2019 06:00:00 18,5 13,6 9 5 ZO 1003,2 10 0 0,0
22.09.2019 05:00:00 17,6 13,1 5 3 O 1003,6 25 0 0,0
22.09.2019 04:00:00 18,2 13,2 5 3 ONO 1003,8 10 0 0,0
22.09.2019 03:00:00 17,5 12,7 8 4 O 1004,7 10 0 0,0
22.09.2019 02:00:00 18,1 13,2 9 5 O 1005,4 10 0 0,0
22.09.2019 01:00:00 18,0 13,0 11 6 O 1005,9 10 - 0,0
22.09.2019 00:00:00 17,6 12,8 9 5 O 1006,5 10 0 0,0
21.09.2019 23:00:00 17,4 12,6 11 6 O 1007,0 21 0 0,0
21.09.2019 22:00:00 17,8 12,1 15 8 O 1007,7 10 0 0,0
21.09.2019 21:00:00 18,7 10,8 9 5 ONO 1008,1 23 0 0,0
21.09.2019 20:00:00 18,8 10,6 11 6 O 1008,4 10 0 0,0
21.09.2019 19:00:00 20,0 10,3 15 8 O 1008,6 10 12 0,0
21.09.2019 18:00:00 22,7 9,7 18 10 O 1009,0 10 60 0,0
21.09.2019 17:00:00 25,3 8,9 22 12 OZO 1009,1 35 60 0,0
21.09.2019 16:00:00 26,3 8,5 16 9 OZO 1009,7 10 60 0,0
21.09.2019 15:00:00 26,0 8,4 18 10 ZO 1010,3 10 60 0,0
21.09.2019 14:00:00 25,0 8,3 18 10 O 1010,8 10 60 0,0
21.09.2019 13:00:00 24,0 8,4 15 8 OZO 1011,8 10 60 0,0
21.09.2019 12:00:00 21,5 7,7 16 9 O 1012,8 10 60 0,0
21.09.2019 11:00:00 19,9 7,9 16 9 OZO 1013,6 10 60 0,0
21.09.2019 10:00:00 17,5 7,3 18 10 O 1014,1 10 60 0,0
21.09.2019 09:00:00 15,4 7,0 18 10 O 1014,6 10 54 0,0
21.09.2019 08:00:00 13,6 6,6 13 7 O 1014,9 35 24 0,0
21.09.2019 07:00:00 12,5 6,1 15 8 O 1015,1 10 0 0,0
21.09.2019 06:00:00 12,4 6,0 16 9 O 1015,3 10 0 0,0
21.09.2019 05:00:00 12,3 6,1 13 7 O 1015,6 10 0 0,0
21.09.2019 04:00:00 12,8 6,0 13 7 O 1016,3 10 0 0,0
21.09.2019 03:00:00 13,8 6,6 9 5 ONO 1016,9 30 0 0,0
21.09.2019 02:00:00 14,2 7,4 13 7 O 1017,8 10 0 0,0
21.09.2019 01:00:00 14,7 9,0 15 8 O 1018,3 10 - 0,0
21.09.2019 00:00:00 14,4 9,6 15 8 O 1019,0 24 0 0,0
20.09.2019 23:00:00 14,7 10,2 18 10 O 1019,6 10 0 0,0
20.09.2019 22:00:00 14,8 10,3 18 10 O 1020,2 23 0 0,0
20.09.2019 21:00:00 15,1 9,7 16 9 O 1020,3 10 0 0,0
20.09.2019 20:00:00 15,5 8,7 15 8 O 1020,6 10 0 0,0
20.09.2019 19:00:00 16,6 8,1 22 12 O 1021,1 10 36 0,0
20.09.2019 18:00:00 18,2 6,4 22 12 O 1021,8 30 60 0,0
20.09.2019 17:00:00 20,1 6,0 24 13 O 1022,1 26 60 0,0
20.09.2019 16:00:00 21,0 6,0 26 14 O 1022,9 10 60 0,0
20.09.2019 15:00:00 21,6 7,5 21 11 O 1023,8 10 60 0,0
20.09.2019 14:00:00 22,0 7,4 22 12 O 1024,6 10 60 0,0
20.09.2019 13:00:00 21,1 7,3 21 11 O 1025,4 10 60 0,0
20.09.2019 12:00:00 20,3 6,7 22 12 OZO 1026,2 10 60 0,0
20.09.2019 11:00:00 19,1 7,1 24 13 OZO 1027,1 10 60 0,0
20.09.2019 10:00:00 17,2 7,7 21 11 OZO 1027,6 10 60 0,0
20.09.2019 09:00:00 14,8 10,4 9 5 ONO 1028,0 10 54 0,0
20.09.2019 08:00:00 12,0 10,3 5 3 NO 1028,1 10 12 0,0
20.09.2019 07:00:00 10,0 9,1 5 3 NO 1027,9 10 0 0,0
20.09.2019 06:00:00 10,4 9,6 4 2 NO 1027,9 10 0 0,0
20.09.2019 05:00:00 10,2 8,8 2 1 ONO 1028,5 10 0 0,0
20.09.2019 04:00:00 10,9 8,9 8 4 NO 1029,0 10 0 0,0
20.09.2019 03:00:00 11,7 9,8 5 3 ONO 1029,5 10 0 0,0
20.09.2019 02:00:00 11,1 8,8 5 3 ONO 1030,0 10 0 0,0
20.09.2019 01:00:00 12,2 8,8 5 3 ONO 1030,1 10 - 0,0
20.09.2019 00:00:00 12,6 8,2 5 3 O 1030,4 10 0 0,0
19.09.2019 23:00:00 13,2 7,7 9 5 O 1030,2 10 0 0,0
19.09.2019 22:00:00 13,9 7,4 9 5 O 1030,4 10 0 0,0
19.09.2019 21:00:00 14,7 7,3 11 6 O 1030,2 10 0 0,0
19.09.2019 20:00:00 16,3 7,5 15 8 OZO 1030,1 50 0 0,0
19.09.2019 19:00:00 17,8 7,8 21 11 O 1029,7 40 36 0,0
19.09.2019 18:00:00 20,8 8,4 13 7 O 1029,3 10 60 0,0
19.09.2019 17:00:00 21,6 8,3 8 4 NO 1029,7 35 60 0,0
19.09.2019 16:00:00 21,8 8,0 11 6 NO 1029,9 35 60 0,0
19.09.2019 15:00:00 21,4 8,0 9 5 OZO 1030,4 10 60 0,0
19.09.2019 14:00:00 20,5 8,4 8 4 NO 1030,9 10 60 0,0
19.09.2019 13:00:00 20,4 8,2 4 2 - 1031,6 10 60 0,0
19.09.2019 12:00:00 19,1 7,7 8 4 OZO 1031,9 10 60 0,0
19.09.2019 11:00:00 18,4 8,8 5 3 - 1032,1 10 60 0,0
19.09.2019 10:00:00 15,4 8,8 4 2 - 1032,3 10 60 0,0
19.09.2019 09:00:00 11,9 8,0 4 2 - 1032,3 10 48 0,0
19.09.2019 08:00:00 9,6 8,1 2 1 N 1031,7 10 0 0,0
19.09.2019 07:00:00 8,3 7,1 2 1 N 1031,3 10 0 0,0
19.09.2019 06:00:00 8,3 6,7 4 2 NW 1030,9 22 0 0,0
19.09.2019 05:00:00 8,8 7,1 2 1 NW 1031,0 10 0 0,0
19.09.2019 04:00:00 9,2 7,1 2 1 NW 1030,9 10 0 0,0
19.09.2019 03:00:00 9,8 7,4 4 2 - 1030,9 10 0 0,0
19.09.2019 02:00:00 10,8 7,2 2 1 N 1031,1 10 0 0,0
19.09.2019 01:00:00 11,8 7,7 2 1 ONO 1031,1 10 - 0,0
19.09.2019 00:00:00 11,6 7,5 2 1 ONO 1030,9 10 0 0,0
18.09.2019 23:00:00 11,9 7,2 5 3 OZO 1030,7 10 0 0,0
18.09.2019 22:00:00 12,9 6,9 9 5 O 1030,3 10 0 0,0
18.09.2019 21:00:00 15,8 6,1 5 3 ONO 1029,8 10 0 0,0
18.09.2019 20:00:00 16,6 5,6 5 3 - 1029,4 10 0 0,0
18.09.2019 19:00:00 18,0 5,3 9 5 NNO 1028,9 30 48 0,0
18.09.2019 18:00:00 19,1 4,5 9 5 NNO 1028,7 10 60 0,0
18.09.2019 17:00:00 19,7 4,6 9 5 NO 1028,7 10 60 0,0
18.09.2019 16:00:00 19,6 3,9 9 5 O 1029,0 10 60 0,0
18.09.2019 15:00:00 19,1 4,4 5 3 O 1029,4 30 60 0,0
18.09.2019 14:00:00 19,0 4,7 8 4 NNO 1029,6 30 60 0,0
18.09.2019 13:00:00 18,6 4,6 13 7 O 1030,0 10 60 0,0
18.09.2019 12:00:00 17,2 4,5 11 6 ONO 1030,4 10 60 0,0
18.09.2019 11:00:00 16,1 5,1 8 4 ONO 1030,5 10 60 0,0
18.09.2019 10:00:00 14,1 6,2 9 5 NNO 1030,6 10 60 0,0
18.09.2019 09:00:00 11,9 6,2 8 4 NO 1030,3 10 54 0,0
18.09.2019 08:00:00 9,4 5,6 5 3 NNO 1029,8 24 24 0,0
18.09.2019 07:00:00 7,9 4,8 4 2 - 1029,6 10 0 0,0
18.09.2019 06:00:00 8,2 5,0 5 3 N 1029,2 10 0 0,0
18.09.2019 05:00:00 8,2 5,0 8 4 N 1028,9 10 0 0,0
18.09.2019 04:00:00 8,5 5,1 5 3 NNW 1028,9 24 0 0,0
18.09.2019 03:00:00 9,4 5,3 4 2 N 1028,7 10 0 0,0
18.09.2019 02:00:00 10,0 5,3 5 3 - 1028,7 10 0 0,0
18.09.2019 01:00:00 11,0 5,2 5 3 - 1028,6 10 - 0,0
18.09.2019 00:00:00 12,2 5,3 9 5 NO 1028,5 10 0 0,0
17.09.2019 23:00:00 13,0 5,4 13 7 ONO 1028,3 10 0 0,0
17.09.2019 22:00:00 13,9 5,9 9 5 NO 1027,7 10 0 0,0
17.09.2019 21:00:00 14,7 6,1 9 5 ONO 1026,9 10 0 0,0
17.09.2019 20:00:00 15,7 5,8 9 5 NO 1026,5 10 0 0,0
17.09.2019 19:00:00 17,1 5,6 11 6 NO 1025,9 10 54 0,0
17.09.2019 18:00:00 18,3 5,6 13 7 NO 1025,7 10 60 0,0
17.09.2019 17:00:00 19,1 4,6 11 6 NNO 1025,1 10 60 0,0
17.09.2019 16:00:00 19,8 5,2 15 8 NO 1025,3 10 60 0,0
17.09.2019 15:00:00 19,2 5,1 15 8 N 1025,2 45 60 0,0
17.09.2019 14:00:00 18,5 4,5 11 6 NNW 1025,2 10 60 0,0
17.09.2019 13:00:00 18,0 5,4 11 6 N 1025,4 10 60 0,0
17.09.2019 12:00:00 16,7 6,2 13 7 N 1025,4 40 60 0,0
17.09.2019 11:00:00 16,0 7,3 9 5 N 1025,4 40 60 0,0
17.09.2019 10:00:00 14,2 7,6 9 5 N 1025,6 10 60 0,0
17.09.2019 09:00:00 12,4 7,9 8 4 N 1025,3 10 54 0,0
17.09.2019 08:00:00 10,4 8,0 8 4 NNW 1025,0 10 30 0,0
17.09.2019 07:00:00 9,6 7,6 5 3 NW 1024,3 10 0 0,0
17.09.2019 06:00:00 10,4 8,0 8 4 WNW 1024,0 10 0 0,0

tt = temperatuur
td = dauwpunt
ff = windsnelheid
dd = windrichting
ppp = luchtdruk
vv = zicht
sd = Zonneschijnduur
rr = neerslag

Weerstations in de omgeving